CW6421 Weather Reports


time (UTC)temp
C
wind
direction
speed
KPH
gust
KPH
rain 1hr
cm
rain 24hr
cm
rain mn
cm
humidity
%
barometer
mb
20260503040528 13 168 4.8 9.7 0.00 0.00 0.00 57 1014.2
20260503035527 13 156 6.4 8.0 0.00 0.00 0.00 56 1014.2
20260503034527 13 134 6.4 9.7 0.00 0.00 0.00 56 1014.2
20260503033527 14 139 8.0 8.0 0.00 0.00 0.00 56 1014.2
20260503032525 14 132 8.0 9.7 0.00 0.00 0.00 55 1014.2
20260503031529 14 150 8.0 9.7 0.00 0.00 0.00 55 1014.2
20260503030527 14 142 6.4 8.0 0.00 0.00 0.00 54 1014.3
20260503025527 14 147 6.4 8.0 0.00 0.00 0.00 54 1014.3
20260503024528 15 139 6.4 8.0 0.00 0.00 0.00 54 1014.3
20260503022527 15 131 3.2 8.0 0.00 0.00 0.00 53 1014.3
20260503020530 15 138 6.4 9.7 0.00 0.00 0.00 52 1014.6
20260503015527 15 130 6.4 8.0 0.00 0.00 0.00 52 1014.6
20260503014528 15 160 3.2 9.7 0.00 0.00 0.00 52 1014.6
20260503013527 15 153 3.2 9.7 0.00 0.00 0.00 52 1014.6
20260503011529 15 162 4.8 9.7 0.00 0.00 0.00 52 1014.6
20260503010527 15 160 4.8 11.3 0.00 0.00 0.00 53 1015.0
20260503005526 15 169 4.8 12.9 0.00 0.00 0.00 53 1015.0
20260503003525 15 169 1.6 12.9 0.00 0.00 0.00 53 1015.0
20260503002526 15 158 3.2 11.3 0.00 0.00 0.00 53 1015.0
20260503001529 15 162 8.0 12.9 0.00 0.00 0.00 54 1015.0
20260503000528 15 150 9.7 12.9 0.00 0.00 0.00 54 1015.5
20260502235526 15 160 9.7 11.3 0.00 0.00 0.00 54 1015.5
20260502234531 15 151 3.2 11.3 0.00 0.00 0.00 55 1015.5
20260502233528 15 165 1.6 12.9 0.00 0.00 0.00 55 1015.5
20260502232526 15 169 0.0 11.3 0.00 0.00 0.00 55 1015.5
20260502231527 15 151 8.0 12.9 0.00 0.00 0.00 55 1015.5
20260502230527 15 153 9.7 14.5 0.00 0.00 0.00 55 1015.7
20260502225526 15 158 6.4 12.9 0.00 0.00 0.00 55 1015.7
20260502224530 15 168 8.0 12.9 0.00 0.00 0.00 54 1015.7
20260502223528 16 153 6.4 16.1 0.00 0.00 0.00 54 1016.1
20260502221529 16 169 6.4 16.1 0.00 0.00 0.00 53 1016.1
20260502220528 16 157 11.3 19.3 0.00 0.00 0.00 53 1016.1
20260502215527 16 161 9.7 16.1 0.00 0.00 0.00 52 1016.1
20260502214530 16 155 8.0 19.3 0.00 0.00 0.00 52 1016.1
20260502213526 16 152 12.9 17.7 0.00 0.00 0.00 51 1016.1
20260502212527 17 154 8.0 17.7 0.00 0.00 0.00 51 1016.1
20260502211530 17 166 6.4 16.1 0.00 0.00 0.00 50 1016.1
20260502204528 17 165 8.0 16.1 0.00 0.00 0.00 48 1016.4
20260502203528 17 161 8.0 16.1 0.00 0.00 0.00 48 1016.4
20260502202526 18 168 9.7 16.1 0.00 0.00 0.00 46 1016.4
20260502201529 18 166 8.0 17.7 0.00 0.00 0.00 46 1016.4
20260502200528 18 180 8.0 17.7 0.00 0.00 0.00 45 1016.5
20260502195526 18 170 12.9 17.7 0.00 0.00 0.00 45 1016.5
20260502193528 19 150 9.7 17.7 0.00 0.00 0.00 43 1016.5
20260502191529 20 212 9.7 19.3 0.00 0.00 0.00 41 1016.5
20260502190530 20 219 8.0 24.1 0.00 0.00 0.00 41 1016.4
20260502185528 21 210 11.3 25.7 0.00 0.00 0.00 39 1016.4
20260502184530 21 209 14.5 20.9 0.00 0.00 0.00 39 1016.4
20260502183527 22 201 11.3 25.7 0.00 0.00 0.00 37 1016.4
20260502181530 22 193 16.1 22.5 0.00 0.00 0.00 35 1016.4
20260502180528 23 207 11.3 22.5 0.00 0.00 0.00 35 1016.6
20260502163527 25 203 16.1 29.0 0.00 0.00 0.00 30 1017.3
20260502160529 25 191 16.1 35.4 0.00 0.00 0.00 29 1018.1
20260502151530 26 197 17.7 30.6 0.00 0.00 0.00 28 1018.1
20260502150529 26 194 16.1 29.0 0.00 0.00 0.00 28 1018.9
20260502130529 28 179 17.7 29.0 0.00 0.00 0.00 28 1020.8
20260502122528 28 197 16.1 30.6 0.00 0.00 0.00 29 1020.8
20260502121530 28 192 16.1 32.2 0.00 0.00 0.00 30 1020.8
20260502113526 27 190 17.7 29.0 0.00 0.00 0.00 31 1021.6
20260502112529 27 207 20.9 32.2 0.00 0.00 0.00 33 1021.6
20260502111531 27 175 17.7 32.2 0.00 0.00 0.00 33 1021.6
20260502110529 27 174 19.3 32.2 0.00 0.00 0.00 34 1022.2
20260502105527 26 187 20.9 29.0 0.00 0.00 0.00 34 1022.2
20260502104532 26 195 19.3 30.6 0.00 0.00 0.00 35 1022.2
20260502103528 26 210 19.3 32.2 0.00 0.00 0.00 36 1022.2
20260502091530 21 180 16.1 24.1 0.00 0.00 0.00 44 1022.9
20260502090529 21 193 16.1 19.3 0.00 0.00 0.00 46 1023.4
20260502071531 16 173 4.8 8.0 0.00 0.00 0.00 58 1023.6
20260502070529 16 186 6.4 9.7 0.00 0.00 0.00 60 1023.9
20260502064531 15 183 6.4 8.0 0.00 0.00 0.00 62 1023.9
20260502062528 14 188 4.8 8.0 0.00 0.00 0.00 64 1023.9
20260502061531 13 163 4.8 8.0 0.00 0.00 0.00 68 1023.9
20260502060528 12 155 3.2 9.7 0.00 0.00 0.00 69 1024.2
20260502054530 12 197 4.8 9.7 0.00 0.00 0.00 69 1024.2
20260502053528 12 199 6.4 8.0 0.00 0.00 0.00 70 1024.2
20260502052527 11 186 6.4 9.7 0.00 0.00 0.00 71 1024.2
20260502051530 11 246 4.8 8.0 0.00 0.00 0.00 71 1024.2
20260502050529 11 243 6.4 8.0 0.00 0.00 0.00 72 1024.1
20260502045529 11 247 3.2 6.4 0.00 0.00 0.00 72 1024.1
20260502044529 11 128 3.2 6.4 0.00 0.00 0.00 72 1024.1
20260502043528 11 131 4.8 6.4 0.00 0.00 0.00 72 1024.1
20260502042529 11 130 4.8 6.4 0.00 0.00 0.00 72 1024.1
20260502041531 11 130 1.6 6.4 0.00 0.00 0.00 72 1024.1